OVERFALLS Weather Reports


time (UTC)temp
C
wind
direction
speed
KPH
gust
KPH
rain 1hr
cm
rain 24hr
cm
rain mn
cm
humidity
%
barometer
mb
20220930151543 18 52 22.5 38.6 0.00 0.00 0.00 68 1023.5
20220930150046 18 58 22.5 40.2 0.00 0.00 0.00 69 1023.5
20220930144554 18 40 22.5 40.2 0.00 0.00 0.00 70 1023.8
20220930143044 18 90 22.5 40.2 0.00 0.00 0.00 71 1023.9
20220930141538 18 65 24.1 38.6 0.00 0.00 0.00 69 1023.9
20220930140048 18 53 17.7 33.8 0.00 0.00 0.00 70 1023.9
20220930134548 17 47 22.5 37.0 0.00 0.00 0.00 73 1024.0
20220930133040 17 15 17.7 29.0 0.00 0.00 0.00 80 1024.2
20220930131544 16 32 16.1 22.5 0.00 0.00 0.00 81 1024.2
20220930130044 16 31 16.1 24.1 0.00 0.00 0.00 83 1024.2
20220930124551 16 23 16.1 25.7 0.00 0.00 0.00 83 1024.2
20220930123040 16 63 17.7 27.4 0.00 0.00 0.00 83 1024.1
20220930121533 16 21 14.5 25.7 0.00 0.00 0.00 82 1024.1
20220930120038 15 41 17.7 30.6 0.00 0.00 0.00 82 1024.1
20220930114547 15 39 19.3 27.4 0.00 0.00 0.00 83 1023.8
20220930113042 15 50 16.1 29.0 0.00 0.00 0.00 84 1023.8
20220930111545 16 42 19.3 29.0 0.00 0.00 0.00 83 1023.8
20220930110038 16 41 19.3 30.6 0.00 0.00 0.00 83 1023.9
20220930104538 16 43 19.3 30.6 0.00 0.00 0.00 83 1024.0
20220930103048 16 40 19.3 33.8 0.00 0.00 0.00 82 1023.8
20220930101553 16 33 20.9 33.8 0.00 0.00 0.00 82 1023.7
20220930100052 16 43 19.3 35.4 0.00 0.00 0.00 81 1023.8
20220930094545 16 5 19.3 37.0 0.00 0.00 0.00 81 1023.7
20220930093108 16 33 20.9 30.6 0.00 0.00 0.00 82 1023.8
20220930091538 16 37 19.3 32.2 0.00 0.00 0.00 81 1023.9
20220930090045 16 41 20.9 32.2 0.00 0.00 0.00 79 1023.7
20220930084548 16 49 17.7 32.2 0.00 0.00 0.00 77 1023.7
20220930083038 16 34 16.1 30.6 0.00 0.00 0.00 78 1023.6
20220930081552 16 33 19.3 32.2 0.00 0.00 0.00 78 1023.7
20220930080053 16 45 17.7 32.2 0.00 0.00 0.00 79 1023.6
20220930074602 16 44 19.3 29.0 0.00 0.00 0.00 79 1023.6
20220930073045 16 76 17.7 32.2 0.00 0.00 0.00 79 1023.4
20220930071544 16 44 20.9 33.8 0.00 0.00 0.00 77 1023.8
20220930070055 16 54 19.3 30.6 0.00 0.00 0.00 78 1023.9
20220930064547 16 26 20.9 29.0 0.00 0.00 0.00 77 1024.3
20220930063041 16 50 17.7 33.8 0.00 0.00 0.00 77 1024.4
20220930061558 16 38 16.1 32.2 0.00 0.00 0.00 76 1024.6
20220930060051 16 36 16.1 30.6 0.00 0.00 0.00 77 1024.7
20220930054557 16 351 19.3 29.0 0.00 0.00 0.00 75 1024.9
20220930053046 16 51 16.1 27.4 0.00 0.00 0.00 75 1025.1
20220930051538 16 50 19.3 29.0 0.00 0.00 0.00 75 1025.3
20220930050052 17 48 19.3 30.6 0.00 0.00 0.00 74 1025.4
20220930044546 17 62 16.1 27.4 0.00 0.00 0.00 73 1025.5
20220930043041 17 61 17.7 25.7 0.00 0.00 0.00 74 1025.5
20220930041535 17 61 17.7 27.4 0.00 0.00 0.00 72 1025.3
20220930040054 17 41 19.3 29.0 0.00 0.00 0.00 72 1025.4
20220930034545 17 5 12.9 27.4 0.00 0.00 0.00 71 1025.5
20220930033127 17 60 16.1 30.6 0.00 0.00 0.00 70 1025.8
20220930031540 17 45 19.3 32.2 0.00 0.00 0.00 68 1025.7
20220930030044 17 65 19.3 29.0 0.00 0.00 0.00 68 1025.8
20220930024548 17 58 14.5 29.0 0.00 0.00 0.00 70 1025.9
20220930023043 17 55 19.3 29.0 0.00 0.00 0.00 69 1026.0
20220930021601 17 80 14.5 29.0 0.00 0.00 0.00 67 1026.1
20220930020135 17 59 14.5 30.6 0.00 0.00 0.00 67 1026.2
20220930014602 17 63 17.7 32.2 0.00 0.00 0.00 67 1026.1
20220930013040 17 42 16.1 30.6 0.00 0.00 0.00 68 1026.2
20220930011542 17 42 16.1 27.4 0.00 0.00 0.00 69 1026.1
20220930010039 17 41 16.1 29.0 0.00 0.00 0.00 70 1026.2
20220930004543 17 25 14.5 32.2 0.00 0.00 0.00 71 1026.3
20220930003053 17 56 16.1 30.6 0.00 0.00 0.00 70 1026.4
20220930001542 17 80 16.1 29.0 0.00 0.00 0.00 71 1026.3
20220930000054 17 62 14.5 27.4 0.00 0.00 0.00 70 1026.2
20220929234538 17 49 16.1 27.4 0.00 0.00 0.00 71 1026.2
20220929233039 17 74 16.1 29.0 0.00 0.00 0.00 71 1026.0
20220929231548 17 88 16.1 25.7 0.00 0.00 0.00 71 1025.9
20220929230056 17 36 12.9 24.1 0.00 0.00 0.00 71 1026.0
20220929224540 17 64 9.7 24.1 0.00 0.00 0.00 70 1026.2
20220929223038 17 37 11.3 25.7 0.00 0.00 0.00 71 1026.3
20220929221540 17 83 14.5 27.4 0.00 0.00 0.00 69 1026.3
20220929220050 17 74 12.9 25.7 0.00 0.00 0.00 70 1026.3
20220929214548 17 43 14.5 22.5 0.00 0.00 0.00 68 1026.4
20220929213047 17 56 12.9 27.4 0.00 0.00 0.00 69 1026.3
20220929211544 17 37 16.1 24.1 0.00 0.00 0.00 70 1026.4
20220929210045 17 38 12.9 27.4 0.00 0.00 0.00 69 1026.4
20220929204537 17 101 14.5 25.7 0.00 0.00 0.00 69 1026.4
20220929203054 17 82 17.7 27.4 0.00 0.00 0.00 69 1026.4
20220929201600 17 38 17.7 29.0 0.00 0.00 0.00 69 1026.5
20220929200048 17 72 16.1 29.0 0.00 0.00 0.00 69 1026.5
20220929194548 17 88 16.1 27.4 0.00 0.00 0.00 68 1026.5
20220929193047 17 49 16.1 27.4 0.00 0.00 0.00 70 1026.4
20220929191620 17 94 14.5 25.7 0.00 0.00 0.00 70 1026.6
20220929190044 17 24 9.7 20.9 0.00 0.00 0.00 68 1026.5
20220929184548 17 31 9.7 19.3 0.00 0.00 0.00 66 1026.6
20220929183044 18 34 9.7 20.9 0.00 0.00 0.00 65 1026.7
20220929181605 18 35 11.3 19.3 0.00 0.00 0.00 65 1026.9
20220929180052 17 34 11.3 22.5 0.00 0.00 0.00 66 1027.0
20220929174549 17 28 9.7 17.7 0.00 0.00 0.00 66 1027.3
20220929173106 17 355 9.7 20.9 0.00 0.00 0.00 66 1027.7
20220929171549 17 21 12.9 20.9 0.00 0.00 0.00 65 1027.7
20220929170043 17 30 12.9 22.5 0.00 0.00 0.00 67 1027.7
20220929164605 17 15 12.9 20.9 0.00 0.00 0.00 66 1027.6
20220929163045 17 15 11.3 27.4 0.00 0.00 0.00 67 1027.7
20220929161536 17 360 12.9 22.5 0.00 0.00 0.00 67 1027.5
20220929160046 17 34 14.5 24.1 0.00 0.00 0.00 68 1027.4
20220929154546 16 336 14.5 29.0 0.00 0.00 0.00 69 1027.4
20220929153039 17 5 11.3 24.1 0.00 0.00 0.00 69 1027.6